OPS 4682 DEB, 51764

Orbit data source: Space-Track

OPS 4682 DEB, 51764 is space debris in LEO originally from a launch on Sat, 03 Apr 1965 UTC launched from the Air Force Western Test Range (AFWTR). Debris objects in space refer to the collection of defunct objects orbiting the Earth. Examples of debris include non-operational satellites, rocket bodies, and fragments generated from explosions, collisions, or faulty payload assembly.

Loading next visibility...
Identifier
51764, 1965-027GV
Orbit
LEO
Country
Flag of USUS
Related business
Manufacturer
Unknown
Mission
Spacecraft
Bus & Motor
Unknown
Mass
Unknown
Launch date (UTC)
1965-04-03 (61 years ago)
Launch vehicle
Unknown
Launch site
Air Force Western Test Range (AFWTR)
Object type
Payload
Rocket body
Debris
Shape & HBR
Unknown
Radar Cross Section
Medium (>0.1 m² and <1 m²)

Expand to show TLE details & history
Last TLE update: 4 days ago

TLE from 4 days ago
0 OPS 4682 DEB
1 51764U 65027GV  26204.73618236  .00000030  00000-0  82328-4 0  9993
2 51764  90.2529   9.5248 0038979 170.8804 251.0276 12.93670463598088
Epoch: 2026-07-23T17:40Z
TLE epoch observation values (Epoch: 2026-07-23T17:40:06.155Z)
Latitude
61.5702°
Longitude
162.56144°
Altitude
1,307.409 km
Speed
7.204 km/s
True Right ascension
00h 36m 14s
True Declination
61° 26' 11"
Sunlit
Object was in daylight at epoch
Visualization orbit readout
Latitude
Unknown
Longitude
Unknown
Altitude
Unknown
Speed
Unknown
Apparent Right ascension
Unknown
Apparent Declination
Unknown
Sunlit
N/A
Visualization observer readout
Local Sidereal Time
14:12:25
Azimuth
Unknown
Elevation
Unknown
Doppler factor
Unknown
Orbital elements
Apogee altitude
1,313.99 km
Perigee altitude
1,254.257 km
Semi-major axis
7,662.261 km
Eccentricity
0.0039
Inclination
90.2529°
RAAN
9.5248°
Arg. of periapsis
170.8804°
True anomaly
250.60587°
Mean anomaly
251.0276°
Eccentric anomaly
250.81667°
Mean motion
3.23599 °/min
Orbital period
111.25 mins
BSTAR
0.000082328
Loading maneuver chart data...
Computing Atmospheric mass density...
Loading historical data...
Loading historical data...
Loading historical data...
Loading historical data...
Loading historical data...
Loading historical data...
Loading historical data...

Documentation

Showing up to 5 results
|